DW4879 Weather Reports


time (UTC)temp
F
wind
direction
speed
knots
gust
knots
rain 1hr
in
rain 24hr
in
rain mn
in
humidity
%
barometer
mb
20260509131043 52 103 4.3 6.1 0.00 0.00 0.00 34 1019.5
20260509130534 52 115 1.7 5.2 0.00 0.00 0.00 35 1019.4
20260509130042 51 128 2.6 5.2 0.00 0.00 0.00 35 1019.3
20260509125548 51 113 2.6 6.1 0.00 0.00 0.00 36 1019.2
20260509125056 50 103 1.7 4.3 0.00 0.00 0.00 37 1019.1
20260509124601 50 103 1.7 5.2 0.00 0.00 0.00 37 1019.1
20260509124003 49 90 2.6 5.2 0.00 0.00 0.00 37 1019.0
20260509123601 49 98 2.6 5.2 0.00 0.00 0.00 37 1018.9
20260509123005 49 120 2.6 6.1 0.00 0.00 0.00 37 1018.8
20260509122558 49 104 2.6 6.1 0.00 0.00 0.00 37 1018.8
20260509122105 49 107 3.5 5.2 0.00 0.00 0.00 37 1018.7
20260509121556 49 94 3.5 5.2 0.00 0.00 0.00 37 1018.6
20260509121048 49 95 2.6 3.5 0.00 0.00 0.00 37 1018.5
20260509120554 49 110 1.7 2.6 0.00 0.00 0.00 37 1018.6
20260509120045 49 113 2.6 3.5 0.00 0.00 0.00 36 1018.5
20260509115552 49 112 1.7 3.5 0.00 0.00 0.00 36 1018.5
20260509115059 50 118 1.7 3.5 0.00 0.00 0.00 36 1018.4
20260509114503 50 119 1.7 5.2 0.00 0.00 0.00 36 1018.3
20260509114101 50 109 2.6 5.2 0.00 0.00 0.00 35 1018.4
20260509113501 50 123 2.6 5.2 0.00 0.00 0.00 35 1018.3
20260509113057 51 132 2.6 3.5 0.00 0.00 0.00 34 1018.4
20260509112547 51 139 2.6 3.5 0.00 0.00 0.00 34 1018.4
20260509112055 51 128 1.7 2.6 0.00 0.00 0.00 33 1018.2
20260509111617 51 121 0.0 1.7 0.00 0.00 0.00 33 1018.2
20260509111004 51 106 0.0 1.7 0.00 0.00 0.00 33 1018.1
20260509110559 51 106 0.9 1.7 0.00 0.00 0.00 33 1018.2
20260509110001 52 106 0.9 1.7 0.00 0.00 0.00 33 1018.2
20260509105557 52 106 0.0 1.7 0.00 0.00 0.00 33 1018.2
20260509105048 52 106 0.0 1.7 0.00 0.00 0.00 33 1017.9
20260509104609 52 121 0.9 2.6 0.00 0.00 0.00 32 1017.9
20260509104046 52 132 0.9 2.6 0.00 0.00 0.00 32 1017.9
20260509103555 52 136 1.7 3.5 0.00 0.00 0.00 33 1017.9
20260509103112 52 324 0.0 2.6 0.00 0.00 0.00 32 1017.9
20260509102505 52 324 0.0 1.7 0.00 0.00 0.00 32 1017.9
20260509102059 52 324 0.0 1.7 0.00 0.00 0.00 32 1017.9
20260509101512 52 324 0.0 1.7 0.00 0.00 0.00 32 1018.0
20260509101057 52 324 0.0 0.9 0.00 0.00 0.00 32 1018.0
20260509100604 52 324 0.0 1.7 0.00 0.00 0.00 32 1018.0
20260509100059 52 324 0.0 1.7 0.00 0.00 0.00 32 1018.1
20260509095501 52 324 0.0 1.7 0.00 0.00 0.00 32 1018.0
20260509095057 52 324 0.0 1.7 0.00 0.00 0.00 32 1018.0
20260509094605 52 324 0.0 1.7 0.00 0.00 0.00 32 1018.1
20260509094056 52 324 0.0 1.7 0.00 0.00 0.00 32 1018.0
20260509093603 52 324 0.0 1.7 0.00 0.00 0.00 31 1018.0
20260509093054 52 324 0.0 1.7 0.00 0.00 0.00 31 1017.9
20260509092600 52 324 0.9 1.7 0.00 0.00 0.00 31 1017.9
20260509092002 52 271 0.0 0.9 0.00 0.00 0.00 31 1017.9
20260509091508 53 271 0.0 0.0 0.00 0.00 0.00 30 1018.0
20260509091015 53 271 0.0 1.7 0.00 0.00 0.00 30 1017.9
20260509090520 53 271 0.0 1.7 0.00 0.00 0.00 30 1017.9
20260509090043 53 271 0.0 1.7 0.00 0.00 0.00 30 1017.9
20260509085534 54 271 0.0 1.7 0.00 0.00 0.00 29 1017.9
20260509085042 54 271 0.0 0.9 0.00 0.00 0.00 29 1018.0
20260509084536 54 271 0.9 1.7 0.00 0.00 0.00 28 1017.9
20260509084041 55 271 0.0 1.7 0.00 0.00 0.00 28 1018.0
20260509083548 55 271 0.0 0.9 0.00 0.00 0.00 28 1018.0
20260509083055 56 271 0.9 1.7 0.00 0.00 0.00 27 1018.0
20260509082545 56 263 0.0 2.6 0.00 0.00 0.00 26 1018.0
20260509082053 57 253 0.9 2.6 0.00 0.00 0.00 26 1018.1
20260509081551 58 266 1.7 2.6 0.00 0.00 0.00 26 1018.0
20260509081034 58 225 0.9 2.6 0.00 0.00 0.00 26 1018.0
20260509080542 58 78 0.0 1.7 0.00 0.00 0.00 26 1017.8
20260509080034 59 78 0.0 1.7 0.00 0.00 0.00 26 1017.8
20260509075541 59 78 0.0 1.7 0.00 0.00 0.00 26 1017.7
20260509075045 59 78 0.9 3.5 0.00 0.00 0.00 26 1017.8
20260509074558 59 78 0.9 3.5 0.00 0.00 0.00 26 1017.7
20260509074045 59 76 1.7 3.5 0.00 0.00 0.00 26 1017.7
20260509073553 59 65 1.7 3.5 0.00 0.00 0.00 26 1017.6
20260509073048 59 90 1.7 3.5 0.00 0.00 0.00 26 1017.7
20260509072535 59 81 2.6 3.5 0.00 0.00 0.00 26 1017.8
20260509072042 59 81 2.6 3.5 0.00 0.00 0.00 25 1017.7
20260509071552 60 96 2.6 3.5 0.00 0.00 0.00 25 1017.8
20260509071053 60 94 1.7 3.5 0.00 0.00 0.00 25 1017.8
20260509070548 60 64 0.9 2.6 0.00 0.00 0.00 25 1017.8
20260509070042 61 26 0.0 1.7 0.00 0.00 0.00 24 1017.8
20260509065541 61 26 0.9 2.6 0.00 0.00 0.00 24 1017.9
20260509065032 61 21 0.9 3.5 0.00 0.00 0.00 24 1017.9
20260509064542 61 34 1.7 3.5 0.00 0.00 0.00 24 1017.9
20260509064050 61 27 2.6 3.5 0.00 0.00 0.00 24 1017.9
20260509063556 62 29 1.7 4.3 0.00 0.00 0.00 24 1017.9
20260509063103 62 28 1.7 4.3 0.00 0.00 0.00 24 1017.8
20260509062554 62 22 1.7 4.3 0.00 0.00 0.00 23 1017.9
20260509062059 63 11 1.7 4.3 0.00 0.00 0.00 23 1017.9
20260509061502 63 33 2.6 4.3 0.00 0.00 0.00 23 1017.9
20260509061057 63 30 1.7 4.3 0.00 0.00 0.00 23 1017.9
20260509060604 64 29 2.6 5.2 0.00 0.00 0.00 23 1017.9
20260509060110 64 34 2.6 5.2 0.00 0.00 0.00 23 1017.9
20260509055600 63 33 2.6 4.3 0.00 0.00 0.00 23 1018.0
20260509055004 63 39 2.6 4.3 0.00 0.00 0.00 23 1018.0
20260509054510 63 29 1.7 3.5 0.00 0.00 0.00 23 1018.0
20260509054015 63 28 0.9 1.7 0.00 0.00 0.00 23 1018.1
20260509053506 63 17 0.9 2.6 0.00 0.00 0.00 23 1018.0
20260509053017 63 5 0.9 2.6 0.00 0.00 0.00 22 1018.1
20260509052503 64 5 0.9 2.6 0.00 0.00 0.00 22 1018.1
20260509052058 64 22 0.9 3.5 0.00 0.00 0.00 22 1018.2
20260509051501 64 15 1.7 3.5 0.00 0.00 0.00 22 1018.0
20260509051057 64 13 0.9 2.6 0.00 0.00 0.00 22 1018.1
20260509050603 64 15 1.7 2.6 0.00 0.00 0.00 22 1018.1
20260509050054 65 11 0.9 2.6 0.00 0.00 0.00 22 1018.2
20260509045544 65 9 0.9 1.7 0.00 0.00 0.00 21 1018.2
20260509045051 66 9 0.9 1.7 0.00 0.00 0.00 21 1018.2
20260509044557 66 9 0.9 1.7 0.00 0.00 0.00 21 1018.2
20260509044106 66 15 0.9 2.6 0.00 0.00 0.00 21 1018.2
20260509043555 67 15 0.0 2.6 0.00 0.00 0.00 21 1018.2
20260509043103 67 355 0.9 2.6 0.00 0.00 0.00 21 1018.2
20260509042553 67 294 0.9 2.6 0.00 0.00 0.00 21 1018.2
20260509042102 67 333 0.9 3.5 0.00 0.00 0.00 20 1018.1
20260509041550 67 303 1.7 4.3 0.00 0.00 0.00 20 1018.1
20260509041041 68 291 1.7 7.0 0.00 0.00 0.00 20 1018.1
20260509040551 68 289 3.5 7.0 0.00 0.00 0.00 20 1018.0
20260509040053 68 336 2.6 5.2 0.00 0.00 0.00 20 1018.0
20260509035601 68 355 3.5 5.2 0.00 0.00 0.00 20 1017.9
20260509035052 69 311 2.6 5.2 0.00 0.00 0.00 19 1017.8
20260509034559 69 281 1.7 5.2 0.00 0.00 0.00 19 1017.8
20260509034050 69 291 1.7 7.0 0.00 0.00 0.00 19 1017.7
20260509033540 69 290 2.6 6.1 0.00 0.00 0.00 19 1017.6
20260509033046 69 269 2.6 6.1 0.00 0.00 0.00 19 1017.6
20260509032552 70 254 1.7 4.3 0.00 0.00 0.00 19 1017.5
20260509032059 70 290 1.7 5.2 0.00 0.00 0.00 19 1017.6
20260509031551 70 278 1.7 4.3 0.00 0.00 0.00 18 1017.5
20260509031100 71 284 2.6 4.3 0.00 0.00 0.00 18 1017.4
20260509030549 71 286 1.7 5.2 0.00 0.00 0.00 18 1017.4
20260509030057 71 286 1.7 6.1 0.00 0.00 0.00 18 1017.3
20260509025545 72 265 2.6 7.0 0.00 0.00 0.00 18 1017.3
20260509025040 72 273 3.5 7.0 0.00 0.00 0.00 18 1017.2
20260509024545 72 274 2.6 7.0 0.00 0.00 0.00 18 1017.2
20260509024036 73 304 2.6 4.3 0.00 0.00 0.00 17 1017.1
20260509023543 73 272 1.7 7.0 0.00 0.00 0.00 17 1017.1
20260509023049 73 298 3.5 7.8 0.00 0.00 0.00 17 1017.1
20260509022556 73 296 4.3 7.8 0.00 0.00 0.00 17 1016.9
20260509022047 74 270 4.3 9.6 0.00 0.00 0.00 17 1016.9
20260509021553 74 285 5.2 12.2 0.00 0.00 0.00 16 1016.9
20260509021058 74 276 5.2 12.2 0.00 0.00 0.00 16 1016.8
20260509020502 75 271 4.3 8.7 0.00 0.00 0.00 16 1016.8
20260509020057 75 277 6.1 11.3 0.00 0.00 0.00 16 1016.7
20260509015600 75 288 5.2 13.9 0.00 0.00 0.00 16 1016.7
20260509015002 76 263 6.1 10.4 0.00 0.00 0.00 16 1016.7
20260509014525 76 288 7.0 11.3 0.00 0.00 0.00 16 1016.7
20260509014103 76 295 7.0 13.9 0.00 0.00 0.00 16 1016.7
20260509013507 76 280 8.7 14.8 0.00 0.00 0.00 16 1016.7
20260509013101 76 302 7.0 14.8 0.00 0.00 0.00 16 1016.7
20260509012551 77 291 7.8 13.9 0.00 0.00 0.00 16 1016.7
20260509012059 77 302 8.7 13.9 0.00 0.00 0.00 16 1016.7
20260509011548 77 278 7.0 14.8 0.00 0.00 0.00 16 1016.7
20260509011040 77 289 10.4 16.5 0.00 0.00 0.00 15 1016.7
20260509010548 77 315 8.7 14.8 0.00 0.00 0.00 16 1016.7
20260509010053 78 313 7.0 18.2 0.00 0.00 0.00 15 1016.6
20260509005600 78 300 12.2 18.2 0.00 0.00 0.00 15 1016.6
20260509005052 78 306 6.1 16.5 0.00 0.00 0.00 15 1016.6
20260509004607 78 281 10.4 16.5 0.00 0.00 0.00 15 1016.6
20260509004049 78 324 7.8 18.2 0.00 0.00 0.00 15 1016.6
20260509003555 78 296 9.6 18.2 0.00 0.00 0.00 15 1016.7
20260509003047 78 250 7.8 18.2 0.00 0.00 0.00 15 1016.6
20260509002538 78 221 6.1 16.5 0.00 0.00 0.00 15 1016.6
20260509002049 78 288 8.7 17.4 0.00 0.00 0.00 15 1016.7
20260509001536 78 315 10.4 19.1 0.00 0.00 0.00 15 1016.7
20260509001043 78 311 13.9 19.1 0.00 0.00 0.00 15 1016.6
20260509000549 79 271 7.8 16.5 0.00 0.00 0.00 15 1016.6
20260509000057 79 287 7.8 17.4 0.00 0.00 0.00 15 1016.7
20260508235548 79 286 11.3 17.4 0.00 0.00 0.00 15 1016.6
20260508235056 79 317 9.6 16.5 0.00 0.00 0.00 15 1016.5
20260508234552 79 235 8.7 15.6 0.00 0.00 0.00 15 1016.6
20260508234039 79 295 10.4 20.0 0.00 0.00 0.00 15 1016.6
20260508233546 79 203 11.3 21.7 0.00 0.00 0.00 15 1016.5
20260508233053 79 321 10.4 21.7 0.00 0.00 0.00 15 1016.6
20260508232559 80 292 12.2 19.1 0.00 0.00 0.00 15 1016.6
20260508232105 80 282 9.6 15.6 0.00 0.00 0.00 15 1016.5
20260508231507 80 274 10.4 18.2 0.00 0.00 0.00 15 1016.5
20260508231014 80 315 7.8 17.4 0.00 0.00 0.00 15 1016.5
20260508230520 80 306 11.3 17.4 0.00 0.00 0.00 15 1016.4
20260508230025 80 314 11.3 17.4 0.00 0.00 0.00 15 1016.4
20260508225531 80 304 7.8 15.6 0.00 0.00 0.00 15 1016.4
20260508225037 80 209 10.4 18.2 0.00 0.00 0.00 15 1016.4
20260508224545 80 273 11.3 20.0 0.00 0.00 0.00 15 1016.4
20260508224036 80 281 13.0 20.0 0.00 0.00 0.00 15 1016.4
20260508223543 80 331 8.7 18.2 0.00 0.00 0.00 15 1016.4
20260508223049 80 306 7.0 16.5 0.00 0.00 0.00 15 1016.4
20260508222555 80 275 8.7 14.8 0.00 0.00 0.00 15 1016.6
20260508222046 80 248 7.0 17.4 0.00 0.00 0.00 15 1016.6
20260508221559 80 301 7.0 17.4 0.00 0.00 0.00 15 1016.6
20260508221100 79 303 10.4 18.2 0.00 0.00 0.00 15 1016.6
20260508220502 79 290 8.7 15.6 0.00 0.00 0.00 15 1016.6
20260508220046 79 291 8.7 20.9 0.00 0.00 0.00 16 1016.7
20260508215537 79 284 12.2 20.9 0.00 0.00 0.00 16 1016.7
20260508215047 78 248 8.7 20.9 0.00 0.00 0.00 16 1016.7
20260508214550 77 306 11.3 20.9 0.00 0.00 0.00 16 1016.9
20260508214058 77 263 8.7 16.5 0.00 0.00 0.00 17 1016.9
20260508213604 76 311 10.4 20.0 0.00 0.00 0.00 17 1017.1
20260508213004 76 309 11.3 20.0 0.00 0.00 0.00 17 1017.0
20260508212600 76 288 9.6 16.5 0.00 0.00 0.00 16 1017.0
20260508212001 77 275 7.8 16.5 0.00 0.00 0.00 16 1017.1
20260508211557 77 288 6.1 13.9 0.00 0.00 0.00 16 1017.2
20260508211047 77 290 7.8 16.5 0.00 0.00 0.00 16 1017.2
20260508210556 78 257 9.6 20.9 0.00 0.00 0.00 16 1017.2
20260508210046 78 290 12.2 20.9 0.00 0.00 0.00 16 1017.1
20260508205554 78 257 7.8 17.4 0.00 0.00 0.00 16 1017.2
20260508205042 78 293 9.6 18.2 0.00 0.00 0.00 15 1017.3
20260508204535 79 224 7.8 17.4 0.00 0.00 0.00 15 1017.2
20260508204041 80 244 9.6 17.4 0.00 0.00 0.00 15 1017.4
20260508203546 80 316 11.3 16.5 0.00 0.00 0.00 15 1017.3
20260508203100 81 290 5.2 12.2 0.00 0.00 0.00 14 1017.4
20260508202543 79 232 7.0 18.2 0.00 0.00 0.00 15 1017.5
20260508202049 79 292 7.0 15.6 0.00 0.00 0.00 15 1017.5
20260508201602 78 294 6.1 16.5 0.00 0.00 0.00 16 1017.6
20260508201102 78 248 8.7 16.5 0.00 0.00 0.00 15 1017.8
20260508200552 79 274 6.1 20.0 0.00 0.00 0.00 15 1017.8
20260508200101 78 254 10.4 20.0 0.00 0.00 0.00 16 1017.8
20260508195550 78 257 6.1 14.8 0.00 0.00 0.00 15 1017.8
20260508195042 78 309 7.8 17.4 0.00 0.00 0.00 16 1017.8
20260508194548 78 290 11.3 17.4 0.00 0.00 0.00 16 1017.9
20260508194039 78 184 7.0 14.8 0.00 0.00 0.00 16 1017.9
20260508193546 78 244 7.0 16.5 0.00 0.00 0.00 16 1017.8
20260508193037 78 282 8.7 16.5 0.00 0.00 0.00 16 1017.8
20260508192542 78 186 5.2 13.9 0.00 0.00 0.00 16 1017.9
20260508192049 78 276 6.1 13.0 0.00 0.00 0.00 16 1018.0
20260508191541 77 280 6.1 14.8 0.00 0.00 0.00 16 1018.1
20260508191047 77 286 5.2 10.4 0.00 0.00 0.00 16 1018.2
20260508190554 77 296 5.2 13.9 0.00 0.00 0.00 16 1018.3
20260508185555 77 320 6.1 13.0 0.00 0.00 0.00 16 1018.3
20260508185059 76 175 5.2 14.8 0.00 0.00 0.00 17 1018.2
20260508184608 76 298 7.0 18.2 0.00 0.00 0.00 17 1018.3
20260508184009 76 190 9.6 20.0 0.00 0.00 0.00 17 1018.3
20260508183604 76 301 7.8 20.0 0.00 0.00 0.00 18 1018.5
20260508183007 76 286 9.6 15.6 0.00 0.00 0.00 17 1018.5
20260508182603 76 211 6.1 13.0 0.00 0.00 0.00 16 1018.5
20260508182003 76 160 4.3 12.2 0.00 0.00 0.00 16 1018.6
20260508181608 76 204 6.1 12.2 0.00 0.00 0.00 16 1018.7
20260508181001 76 213 4.3 15.6 0.00 0.00 0.00 17 1018.8
20260508180504 75 288 7.0 15.6 0.00 0.00 0.00 17 1019.0
20260508180106 75 294 8.7 14.8 0.00 0.00 0.00 17 1018.9
20260508175552 75 257 6.1 13.9 0.00 0.00 0.00 17 1019.0
20260508175100 75 288 7.0 13.0 0.00 0.00 0.00 17 1019.0
20260508174501 75 272 6.1 13.0 0.00 0.00 0.00 17 1019.0
20260508174008 76 273 5.2 10.4 0.00 0.00 0.00 17 1019.0
20260508173605 75 257 4.3 8.7 0.00 0.00 0.00 17 1019.2
20260508173006 75 171 4.3 8.7 0.00 0.00 0.00 17 1019.2
20260508172602 75 284 2.6 8.7 0.00 0.00 0.00 17 1019.3
20260508172052 74 234 2.6 9.6 0.00 0.00 0.00 17 1019.3
20260508171601 73 193 4.3 10.4 0.00 0.00 0.00 18 1019.4
20260508171001 71 288 5.2 10.4 0.00 0.00 0.00 19 1019.5
20260508170509 71 248 4.3 8.7 0.00 0.00 0.00 19 1019.6
20260508170105 71 244 4.3 9.6 0.00 0.00 0.00 19 1019.6
20260508165508 71 234 3.5 9.6 0.00 0.00 0.00 19 1019.7
20260508165106 71 234 2.6 7.0 0.00 0.00 0.00 20 1019.7
20260508164505 70 267 3.5 7.0 0.00 0.00 0.00 20 1019.7
20260508164101 71 247 3.5 7.0 0.00 0.00 0.00 20 1019.7
20260508163552 70 240 1.7 5.2 0.00 0.00 0.00 21 1019.8
20260508163058 70 205 2.6 6.1 0.00 0.00 0.00 21 1019.7
20260508162549 69 173 2.6 6.1 0.00 0.00 0.00 22 1019.8
20260508162055 69 134 0.9 4.3 0.00 0.00 0.00 22 1019.8
20260508161545 68 216 1.7 6.1 0.00 0.00 0.00 23 1019.7
20260508161036 67 153 4.3 6.1 0.00 0.00 0.00 24 1019.8
20260508160546 67 182 0.9 5.2 0.00 0.00 0.00 24 1019.9
20260508160049 66 150 1.7 5.2 0.00 0.00 0.00 24 1019.9
20260508155559 65 146 0.9 3.5 0.00 0.00 0.00 24 1019.8
20260508155050 65 157 0.0 3.5 0.00 0.00 0.00 24 1019.8
20260508154603 65 149 2.6 3.5 0.00 0.00 0.00 25 1019.9
20260508154046 64 192 2.6 5.2 0.00 0.00 0.00 25 1019.9
20260508153537 63 131 2.6 6.1 0.00 0.00 0.00 25 1020.0
20260508153052 63 150 1.7 6.1 0.00 0.00 0.00 26 1020.0
20260508152551 63 163 1.7 3.5 0.00 0.00 0.00 26 1019.9
20260508152059 62 120 2.6 5.2 0.00 0.00 0.00 26 1019.9
20260508151551 61 127 2.6 5.2 0.00 0.00 0.00 27 1019.9
20260508151058 61 104 1.7 6.1 0.00 0.00 0.00 28 1020.0
20260508150604 60 119 2.6 6.1 0.00 0.00 0.00 28 1020.0
20260508150007 60 119 2.6 7.0 0.00 0.00 0.00 29 1020.0
20260508145603 59 118 3.5 7.0 0.00 0.00 0.00 29 1019.9
20260508145005 59 130 4.3 6.1 0.00 0.00 0.00 29 1019.9
20260508144601 58 101 3.5 6.1 0.00 0.00 0.00 30 1020.0
20260508144002 58 134 2.6 6.1 0.00 0.00 0.00 30 1020.0
20260508143558 57 96 2.6 6.1 0.00 0.00 0.00 31 1020.0
20260508143048 57 104 2.6 7.0 0.00 0.00 0.00 32 1020.0
20260508142556 56 95 4.3 7.0 0.00 0.00 0.00 31 1020.0
20260508142047 56 132 3.5 7.0 0.00 0.00 0.00 32 1020.2
20260508141615 56 126 3.5 7.0 0.00 0.00 0.00 33 1020.0
20260508141101 55 126 3.5 7.0 0.00 0.00 0.00 32 1020.1
20260508140503 55 121 3.5 6.1 0.00 0.00 0.00 32 1020.0
20260508140046 55 129 2.6 6.1 0.00 0.00 0.00 33 1020.0
20260508135537 54 132 1.7 6.1 0.00 0.00 0.00 33 1020.0
20260508135045 53 119 2.6 7.0 0.00 0.00 0.00 33 1019.9
20260508134602 53 122 2.6 7.0 0.00 0.00 0.00 34 1019.8
20260508134103 52 88 2.6 6.1 0.00 0.00 0.00 34 1019.8
20260508133605 52 91 3.5 6.1 0.00 0.00 0.00 34 1019.7
20260508133009 51 90 2.6 6.1 0.00 0.00 0.00 35 1019.7
20260508132603 51 98 3.5 6.1 0.00 0.00 0.00 35 1019.7
20260508132007 50 101 2.6 6.1 0.00 0.00 0.00 36 1019.6
20260508131602 50 94 4.3 6.1 0.00 0.00 0.00 36 1019.6